{"data":{"norad_id":65926,"intl_designator":"2025-225S","name":"STARLINK-35492","alt_names":[],"object_type":"PAYLOAD","status":"ACTIVE","operator":null,"country":"US","launch_date":"2025-10-08","launch_site_code":"AFWTR","launch_vehicle":null,"mission":null,"orbit_class":"UNKNOWN","rcs_meters":null,"size_class":null,"mass_kg":null,"dimensions":null,"purposes":["comms"],"wikipedia_slug":null,"has_3d_model":false,"image_url":null,"decayed_at":null,"tle_current":{"epoch":"2026-09-20T20:11:54.189888Z","epoch_age_seconds":73636,"freshness":"FRESH","line1":"1 65926U 25225S   26263.84159942  .00012492  00000+0  38016-3 0  9993","line2":"2 65926  53.1597 335.8928 0001021  68.1300 291.9811 15.34406336 54331","mean_motion":15.34406336,"eccentricity":0.0001021,"inclination_deg":53.1597,"raan_deg":335.8928,"arg_perigee_deg":68.13,"mean_anomaly_deg":291.9811,"bstar":0.00038016,"rev_number":5433,"period_min":93.84737055726,"perigee_km":461.98596047886,"apogee_km":463.38285621045,"semimajor_km":6840.8214083447,"source":"CELESTRAK","updated_at":"2026-09-21T09:00:35.765487Z"}}}